Weather History for Ruidoso, NM

Change the Weather History Date:

Wednesday, October 17, 2012

  Actual Average Record
Temperature  
Mean Temperature 62 °F -  
Max Temperature 71 °F 63 °F 93 °F (1999)
Min Temperature 53 °F 41 °F 28 °F (1999)
Degree Days  
Heating Degree Days 3    
Growing Degree Days 12 (Base 50)    
Moisture  
Dew Point 22 °F    
Average Humidity 21    
Maximum Humidity 28    
Minimum Humidity 13    
Precipitation  
Precipitation 0.00 in - - ()
Sea Level Pressure  
Sea Level Pressure 30.04 in    
Wind  
Wind Speed 16 mph (WNW)    
Max Wind Speed 29 mph    
Max Gust Speed 47 mph    
Visibility 10 miles    
Events      
Averages and records for this station are not official NWS values.
T = Trace of Precipitation, MM = Missing Value Source: NWS Daily Summary

Daily Weather History Graph

Daily Weather History Graph

Search for Another Location

Airport:

Trip Planner

Search our weather history database for the weather conditions in past years. The results will help you decide how hot, cold, wet, or windy it might be!

Date:

Astronomy

Oct. 17, 2012 Rise Set
Actual Time 7:08 AM MDT 6:25 PM MDT
Civil Twilight 6:43 AM MDT 6:50 PM MDT
Nautical Twilight 6:14 AM MDT 7:19 PM MDT
Astronomical Twilight 5:45 AM MDT 7:48 PM MDT
Moon 9:37 AM MDT (10/17) 8:13 PM MDT (10/17)
Length of Visible Light 12h 06m
Length of Day
11h 16m
Waxing Crescent, 7% of the Moon is Illuminated
Oct 17
Waxing Crescent
Oct 21
First Quarter
Oct 29
Full
Nov 6
Last Quarter
Nov 13
New

Hourly Weather History & Observations

Time (MDT) Temp. Dew Point Humidity Pressure Visibility Wind Dir Wind Speed Gust Speed Precip Events Conditions
12:15 AM 59.0 °F 19.4 °F 22% 29.97 in 10.0 mi SW 19.6 mph 26.5 mph N/A   Clear
12:35 AM 57.2 °F 19.4 °F 23% 29.97 in 10.0 mi SW 16.1 mph - N/A   Clear
12:55 AM 57.2 °F 19.4 °F 23% 29.97 in 10.0 mi SW 15.0 mph - N/A   Clear
1:15 AM 57.2 °F 19.4 °F 23% 29.98 in 10.0 mi WSW 17.3 mph 24.2 mph N/A   Clear
1:35 AM 57.2 °F 19.4 °F 23% 29.97 in 10.0 mi WSW 16.1 mph - N/A   Clear
1:55 AM 55.4 °F 19.4 °F 25% 29.97 in 10.0 mi WSW 15.0 mph - N/A   Clear
2:15 AM 53.6 °F 19.4 °F 26% 29.97 in 10.0 mi WSW 13.8 mph - N/A   Clear
2:35 AM 55.4 °F 19.4 °F 25% 29.97 in 10.0 mi WNW 9.2 mph - N/A   Clear
2:55 AM 60.8 °F 19.4 °F 20% 29.97 in 10.0 mi NW 15.0 mph 19.6 mph N/A   Clear
3:15 AM 60.8 °F 19.4 °F 20% 29.97 in 10.0 mi WNW 17.3 mph 23.0 mph N/A   Clear
3:35 AM 60.8 °F 19.4 °F 20% 29.97 in 10.0 mi WNW 12.7 mph 21.9 mph N/A   Clear
3:55 AM 59.0 °F 19.4 °F 22% 29.97 in 10.0 mi WNW 8.1 mph - N/A   Clear
4:15 AM 59.0 °F 19.4 °F 22% 29.97 in 10.0 mi West 5.8 mph - N/A   Clear
4:35 AM 59.0 °F 19.4 °F 22% 29.97 in 10.0 mi West 9.2 mph - N/A   Clear
4:55 AM 59.0 °F 21.2 °F 23% 29.98 in 10.0 mi WNW 13.8 mph 18.4 mph N/A   Clear
5:15 AM 60.8 °F 21.2 °F 22% 29.98 in 10.0 mi WNW 12.7 mph 20.7 mph N/A   Clear
5:55 AM 59.0 °F 21.2 °F 23% 29.99 in 10.0 mi WNW 15.0 mph 21.9 mph N/A   Clear
6:15 AM 59.0 °F 21.2 °F 23% 29.99 in 10.0 mi WNW 12.7 mph 28.8 mph N/A   Clear
6:35 AM 60.8 °F 21.2 °F 22% 29.99 in 10.0 mi WNW 20.7 mph 34.5 mph N/A   Clear
6:55 AM 59.0 °F 21.2 °F 23% 29.99 in 10.0 mi NW 18.4 mph 31.1 mph N/A   Clear
7:15 AM 59.0 °F 23.0 °F 25% 29.99 in 10.0 mi NW 17.3 mph 31.1 mph N/A   Clear
7:35 AM 59.0 °F 23.0 °F 25% 30.00 in 10.0 mi NNW 11.5 mph 25.3 mph N/A   Clear
7:55 AM 59.0 °F 24.8 °F 27% 30.01 in 10.0 mi NW 15.0 mph 27.6 mph N/A   Clear
8:15 AM 62.6 °F 26.6 °F 26% 30.01 in 10.0 mi NW 27.6 mph 39.1 mph N/A   Clear
8:35 AM 62.6 °F 26.6 °F 26% 30.03 in 10.0 mi NW 17.3 mph 34.5 mph N/A   Clear
8:55 AM 62.6 °F 28.4 °F 27% 30.03 in 10.0 mi WNW 16.1 mph 29.9 mph N/A   Clear
9:15 AM 64.4 °F 28.4 °F 26% 30.03 in 10.0 mi NW 21.9 mph 31.1 mph N/A   Clear
9:35 AM 64.4 °F 30.2 °F 28% 30.04 in 10.0 mi NW 18.4 mph 34.5 mph N/A   Clear
9:55 AM 64.4 °F 28.4 °F 26% 30.06 in 10.0 mi NNW 17.3 mph 28.8 mph N/A   Clear
10:15 AM 64.4 °F 30.2 °F 28% 30.06 in 10.0 mi NW 23.0 mph 32.2 mph N/A   Clear
10:35 AM 64.4 °F 28.4 °F 26% 30.06 in 10.0 mi NW 28.8 mph 41.4 mph N/A   Clear
10:55 AM 64.4 °F 28.4 °F 26% 30.07 in 10.0 mi NW 16.1 mph 33.4 mph N/A   Clear
11:15 AM 66.2 °F 28.4 °F 24% 30.08 in 10.0 mi NW 24.2 mph 35.7 mph N/A   Clear
11:35 AM 66.2 °F 28.4 °F 24% 30.07 in 10.0 mi NW 24.2 mph 41.4 mph N/A   Clear
11:55 AM 66.2 °F 30.2 °F 26% 30.06 in 10.0 mi WNW 19.6 mph 35.7 mph N/A   Clear
12:15 PM 68.0 °F 30.2 °F 24% 30.06 in 10.0 mi NW 23.0 mph 36.8 mph N/A   Clear
12:35 PM 68.0 °F 28.4 °F 23% 30.06 in 10.0 mi NW 24.2 mph 47.2 mph N/A   Clear
12:55 PM 68.0 °F 28.4 °F 23% 30.05 in 10.0 mi NW 20.7 mph 39.1 mph N/A   Clear
1:15 PM 69.8 °F 26.6 °F 20% 30.05 in 10.0 mi NW 23.0 mph 38.0 mph N/A   Clear
1:35 PM 69.8 °F 26.6 °F 20% 30.05 in 10.0 mi NW 24.2 mph 32.2 mph N/A   Clear
1:55 PM 71.6 °F 23.0 °F 16% 30.05 in 10.0 mi NW 21.9 mph 36.8 mph N/A   Clear
2:15 PM 69.8 °F 23.0 °F 17% 30.03 in 10.0 mi WNW 27.6 mph 41.4 mph N/A   Clear
2:35 PM 69.8 °F 23.0 °F 17% 30.02 in 10.0 mi NW 25.3 mph 38.0 mph N/A   Clear
2:55 PM 71.6 °F 23.0 °F 16% 30.03 in 10.0 mi NW 21.9 mph 36.8 mph N/A   Clear
3:15 PM 69.8 °F 23.0 °F 17% 30.03 in 10.0 mi NW 25.3 mph 34.5 mph N/A   Clear
3:35 PM 69.8 °F 23.0 °F 17% 30.03 in 10.0 mi NW 23.0 mph 40.3 mph N/A   Clear
3:55 PM 69.8 °F 24.8 °F 18% 30.03 in 10.0 mi NW 24.2 mph 38.0 mph N/A   Clear
4:15 PM 69.8 °F 24.8 °F 18% 30.05 in 10.0 mi WNW 18.4 mph 32.2 mph N/A   Clear
4:35 PM 69.8 °F 24.8 °F 18% 30.05 in 10.0 mi NW 18.4 mph 32.2 mph N/A   Clear
4:55 PM 69.8 °F 24.8 °F 18% 30.05 in 10.0 mi NW 19.6 mph 29.9 mph N/A   Clear
5:15 PM 68.0 °F 24.8 °F 20% 30.06 in 10.0 mi WNW 15.0 mph 26.5 mph N/A   Clear
5:35 PM 68.0 °F 24.8 °F 20% 30.06 in 10.0 mi WNW 13.8 mph 26.5 mph N/A   Clear
5:55 PM 66.2 °F 24.8 °F 21% 30.06 in 10.0 mi NW 10.4 mph 23.0 mph N/A   Clear
6:15 PM 66.2 °F 24.8 °F 21% 30.06 in 10.0 mi WNW 12.7 mph - N/A   Clear
6:35 PM 64.4 °F 24.8 °F 22% 30.07 in 10.0 mi West 8.1 mph - N/A   Clear
6:55 PM 62.6 °F 24.8 °F 24% 30.07 in 10.0 mi West 9.2 mph - N/A   Clear
7:15 PM 62.6 °F 23.0 °F 22% 30.08 in 10.0 mi WNW 10.4 mph - N/A   Clear
7:35 PM 60.8 °F 23.0 °F 23% 30.08 in 10.0 mi WNW 10.4 mph - N/A   Clear
7:55 PM 60.8 °F 23.0 °F 23% 30.09 in 10.0 mi WNW 8.1 mph - N/A   Clear
8:15 PM 60.8 °F 19.4 °F 20% 30.09 in 10.0 mi WNW 10.4 mph - N/A   Clear
8:35 PM 60.8 °F 15.8 °F 17% 30.10 in 10.0 mi WNW 10.4 mph 17.3 mph N/A   Clear
8:55 PM 60.8 °F 15.8 °F 17% 30.10 in 10.0 mi West 12.7 mph 18.4 mph N/A   Clear
9:15 PM 59.0 °F 15.8 °F 19% 30.10 in 10.0 mi West 11.5 mph - N/A   Clear
9:55 PM 57.2 °F 14.0 °F 18% 30.11 in 10.0 mi West 10.4 mph - N/A   Clear
10:15 PM 57.2 °F 12.2 °F 17% 30.12 in 10.0 mi West 8.1 mph - N/A   Clear
10:35 PM 57.2 °F 10.4 °F 16% 30.12 in 10.0 mi WNW 9.2 mph - N/A   Clear
10:55 PM 57.2 °F 8.6 °F 14% 30.13 in 10.0 mi WNW 3.5 mph - N/A   Clear
11:15 PM 57.2 °F 8.6 °F 14% 30.13 in 10.0 mi Calm Calm - N/A   Clear
11:35 PM 57.2 °F 8.6 °F 14% 30.14 in 10.0 mi Calm Calm - N/A   Clear
11:55 PM 57.2 °F 6.8 °F 13% 30.14 in 10.0 mi WNW 8.1 mph - N/A   Clear